Madison, SD

11:56 PM CST on November 17, 2019 (GMT -0600)
Madison Municipal

Weather History for KMDS - September, 2019

Change the Weather History Date:

Saturday, September 28, 2019

  Actual Average Record
Temperature  
Mean Temperature 48 °F -  
Max Temperature 57 °F 68 °F 86 °F (2011)
Min Temperature 39 °F 43 °F 33 °F (2018)
Degree Days  
Heating Degree Days 17    
Moisture  
Dew Point 41 °F    
Average Humidity 76    
Maximum Humidity 100    
Minimum Humidity 48    
Precipitation  
Precipitation 0.04 in - - ()
Sea Level Pressure  
Sea Level Pressure 30.11 in    
Wind  
Wind Speed 10 mph ()    
Max Wind Speed 21 mph    
Max Gust Speed 29 mph    
Visibility 10.0 miles    
Events Rain    
Averages and records for this station are not official NWS values.
T = Trace of Precipitation, MM = Missing Value Source: Averaged Metar Reports

Daily Weather History Graph

Daily Weather History Graph

Search for Another Location

Airport or City:

Astronomy

Sep. 28, 2019 Rise Set
Actual Time 7:22 AM CDT 7:15 PM CDT
Civil Twilight 6:53 AM CDT 7:43 PM CDT
Nautical Twilight 6:19 AM CDT 8:17 PM CDT
Astronomical Twilight 5:45 AM CDT 8:51 PM CDT
Moon 6:57 AM CDT (9/28) 7:42 PM CDT (9/28)
Length of Visible Light 12h 50m
Length of Day
11h 52m
Waning Crescent, 0% of the Moon is Illuminated
Sep 28
Waning Crescent
Sep 28
New
Oct 5
First Quarter
Oct 13
Full
Oct 21
Last Quarter

Hourly Weather History & Observations

Time (CDT) Temp. Windchill Dew Point Humidity Pressure Visibility Wind Dir Wind Speed Gust Speed Precip Events Conditions
12:15 AM 46.4 °F 43.5 °F 46.4 °F 100% 30.02 in 10.0 mi NNE 5.8 mph - N/A   Mostly Cloudy
12:20 AM 46.4 °F 43.5 °F 46.4 °F 100% 30.02 in 10.0 mi NNE 5.8 mph - N/A   Mostly Cloudy
12:35 AM 44.6 °F 40.2 °F 44.6 °F 100% 30.02 in 10.0 mi North 8.1 mph - N/A   Scattered Clouds
12:40 AM 44.6 °F 40.7 °F 44.6 °F 100% 30.02 in 10.0 mi North 6.9 mph - N/A   Scattered Clouds
12:55 AM 42.8 °F 40.1 °F 42.8 °F 100% 30.02 in 10.0 mi NNE 4.6 mph - N/A   Clear
1:15 AM 41.0 °F 36.4 °F 41.0 °F 100% 30.03 in 10.0 mi North 6.9 mph - N/A   Clear
1:35 AM 41.0 °F 35.8 °F 41.0 °F 100% 30.04 in 10.0 mi North 8.1 mph - N/A   Clear
1:40 AM 41.0 °F 36.4 °F 41.0 °F 100% 30.04 in 10.0 mi North 6.9 mph - N/A   Clear
1:55 AM 41.0 °F 36.4 °F 41.0 °F 100% 30.04 in 10.0 mi NNE 6.9 mph - N/A   Clear
2:00 AM 41.0 °F 37.1 °F 41.0 °F 100% 30.05 in 10.0 mi North 5.8 mph - N/A   Clear
2:15 AM 41.0 °F 38.0 °F 41.0 °F 100% 30.06 in 10.0 mi NNE 4.6 mph - N/A   Clear
2:35 AM 41.0 °F 39.0 °F 41.0 °F 100% 30.07 in 10.0 mi NE 3.5 mph - N/A   Clear
2:55 AM 41.0 °F 39.0 °F 41.0 °F 100% 30.07 in 10.0 mi East 3.5 mph - N/A   Clear
3:00 AM 41.0 °F 39.0 °F 41.0 °F 100% 30.07 in 10.0 mi NE 3.5 mph - N/A   Clear
3:15 AM 41.0 °F 39.0 °F 41.0 °F 100% 30.06 in 10.0 mi NNE 3.5 mph - N/A   Clear
3:20 AM 39.2 °F 35.9 °F 39.2 °F 100% 30.06 in 10.0 mi North 4.6 mph - N/A   Clear
3:35 AM 39.2 °F 35.0 °F 39.2 °F 100% 30.07 in 10.0 mi NNE 5.8 mph - N/A   Clear
3:55 AM 39.2 °F 35.0 °F 39.2 °F 100% 30.08 in 10.0 mi NNE 5.8 mph - N/A   Clear
4:00 AM 39.2 °F 34.2 °F 39.2 °F 100% 30.08 in 10.0 mi NE 6.9 mph - N/A   Clear
4:15 AM 39.2 °F 33.6 °F 39.2 °F 100% 30.08 in 10.0 mi NE 8.1 mph - N/A   Clear
4:20 AM 41.0 °F 36.4 °F 41.0 °F 100% 30.08 in 10.0 mi ENE 6.9 mph - N/A   Clear
4:35 AM 41.0 °F 35.8 °F 41.0 °F 100% 30.08 in 10.0 mi NE 8.1 mph - N/A   Clear
4:55 AM 41.0 °F 36.4 °F 41.0 °F 100% 30.09 in 10.0 mi ENE 6.9 mph - N/A   Clear
5:00 AM 41.0 °F 36.4 °F 41.0 °F 100% 30.09 in 10.0 mi NE 6.9 mph - N/A   Clear
5:15 AM 41.0 °F 37.1 °F 41.0 °F 100% 30.10 in 10.0 mi ENE 5.8 mph - N/A   Clear
5:20 AM 41.0 °F 37.1 °F 41.0 °F 100% 30.10 in 10.0 mi NE 5.8 mph - N/A   Clear
5:35 AM 39.2 °F 34.2 °F 39.2 °F 100% 30.10 in 10.0 mi NE 6.9 mph - N/A   Clear
5:55 AM 41.0 °F 37.1 °F 41.0 °F 100% 30.11 in 10.0 mi NE 5.8 mph - N/A   Clear
6:15 AM 41.0 °F 36.4 °F 41.0 °F 100% 30.12 in 10.0 mi ENE 6.9 mph - N/A   Clear
6:20 AM 41.0 °F 36.4 °F 41.0 °F 100% 30.12 in 10.0 mi ENE 6.9 mph - N/A   Clear
6:35 AM 39.2 °F 34.2 °F 39.2 °F 100% 30.12 in 10.0 mi ENE 6.9 mph - N/A   Clear
6:55 AM 39.2 °F 35.0 °F 39.2 °F 100% 30.13 in 10.0 mi ENE 5.8 mph - N/A   Clear
7:15 AM 39.2 °F 35.0 °F 39.2 °F 100% 30.14 in 10.0 mi NE 5.8 mph - N/A   Clear
7:20 AM 39.2 °F 34.2 °F 39.2 °F 100% 30.14 in 10.0 mi NE 6.9 mph - N/A   Clear
7:35 AM 39.2 °F 35.9 °F 39.2 °F 100% 30.15 in 10.0 mi ENE 4.6 mph - N/A   Clear
7:55 AM 41.0 °F 36.4 °F 41.0 °F 100% 30.15 in 10.0 mi East 6.9 mph - N/A   Clear
8:15 AM 41.0 °F 37.1 °F 41.0 °F 100% 30.17 in 10.0 mi ENE 5.8 mph - N/A   Clear
8:20 AM 42.8 °F 38.6 °F 42.8 °F 100% 30.17 in 10.0 mi ENE 6.9 mph - N/A   Clear
8:35 AM 44.6 °F 39.7 °F 44.6 °F 100% 30.18 in 10.0 mi ENE 9.2 mph - N/A   Clear
8:40 AM 44.6 °F 38.8 °F 44.6 °F 100% 30.17 in 10.0 mi ENE 11.5 mph - N/A   Clear
8:55 AM 44.6 °F 38.8 °F 44.6 °F 100% 30.17 in 10.0 mi ENE 11.5 mph - N/A   Clear
9:15 AM 46.4 °F 40.7 °F 46.4 °F 100% 30.18 in 10.0 mi ENE 12.7 mph - N/A   Clear
9:20 AM 46.4 °F 41.1 °F 46.4 °F 100% 30.18 in 10.0 mi ENE 11.5 mph 18.4 mph N/A   Clear
9:35 AM 48.2 °F - 46.4 °F 93% 30.18 in 10.0 mi ENE 13.8 mph 18.4 mph N/A   Clear
9:55 AM 48.2 °F - 44.6 °F 87% 30.18 in 10.0 mi ENE 17.3 mph 20.7 mph N/A   Clear
10:00 AM 50.0 °F - 44.6 °F 82% 30.18 in 10.0 mi ENE 13.8 mph 20.7 mph N/A   Clear
10:15 AM 48.2 °F - 44.6 °F 87% 30.18 in 10.0 mi ENE 13.8 mph 20.7 mph N/A   Clear
10:20 AM 50.0 °F - 44.6 °F 82% 30.19 in 10.0 mi East 13.8 mph 20.7 mph N/A   Clear
10:35 AM 50.0 °F - 44.6 °F 82% 30.19 in 10.0 mi ENE 15.0 mph 19.6 mph N/A   Clear
10:40 AM 50.0 °F - 42.8 °F 76% 30.19 in 10.0 mi ENE 15.0 mph 19.6 mph N/A   Clear
10:55 AM 51.8 °F - 41.0 °F 67% 30.19 in 10.0 mi East 15.0 mph - N/A   Clear
11:00 AM 53.6 °F - 42.8 °F 67% 30.19 in 10.0 mi East 15.0 mph - N/A   Clear
11:15 AM 53.6 °F - 41.0 °F 62% 30.18 in 10.0 mi East 16.1 mph 21.9 mph N/A   Clear
11:20 AM 53.6 °F - 41.0 °F 62% 30.17 in 10.0 mi East 13.8 mph - N/A   Clear
11:35 AM 53.6 °F - 41.0 °F 62% 30.17 in 10.0 mi ENE 20.7 mph 24.2 mph N/A   Clear
11:55 AM 55.4 °F - 39.2 °F 54% 30.17 in 10.0 mi East 15.0 mph 21.9 mph N/A   Clear
12:00 PM 55.4 °F - 41.0 °F 58% 30.17 in 10.0 mi East 15.0 mph 21.9 mph N/A   Clear
12:15 PM 53.6 °F - 41.0 °F 62% 30.16 in 10.0 mi East 15.0 mph 24.2 mph N/A   Clear
12:20 PM 55.4 °F - 39.2 °F 54% 30.17 in 10.0 mi East 13.8 mph - N/A   Clear
12:35 PM 55.4 °F - 39.2 °F 54% 30.18 in 10.0 mi East 13.8 mph 19.6 mph N/A   Clear
12:40 PM 55.4 °F - 39.2 °F 54% 30.17 in 10.0 mi ENE 15.0 mph 19.6 mph N/A   Clear
12:55 PM 55.4 °F - 39.2 °F 54% 30.17 in 10.0 mi East 13.8 mph 19.6 mph N/A   Clear
1:15 PM 55.4 °F - 37.4 °F 51% 30.17 in 10.0 mi East 13.8 mph 18.4 mph N/A   Clear
1:20 PM 55.4 °F - 39.2 °F 54% 30.17 in 10.0 mi East 15.0 mph 19.6 mph N/A   Clear
1:35 PM 55.4 °F - 37.4 °F 51% 30.16 in 10.0 mi East 15.0 mph 18.4 mph N/A   Partly Cloudy
1:55 PM 55.4 °F - 37.4 °F 51% 30.15 in 10.0 mi ENE 11.5 mph - N/A   Partly Cloudy
2:00 PM 55.4 °F - 37.4 °F 51% 30.15 in 10.0 mi East 16.1 mph 20.7 mph N/A   Partly Cloudy
2:15 PM 57.2 °F - 39.2 °F 51% 30.14 in 10.0 mi East 15.0 mph 21.9 mph N/A   Clear
2:20 PM 57.2 °F - 39.2 °F 51% 30.15 in 10.0 mi East 13.8 mph 18.4 mph N/A   Clear
2:35 PM 55.4 °F - 37.4 °F 51% 30.15 in 10.0 mi East 15.0 mph 20.7 mph N/A   Partly Cloudy
2:40 PM 57.2 °F - 39.2 °F 51% 30.15 in 10.0 mi East 15.0 mph 19.6 mph N/A   Partly Cloudy
2:55 PM 55.4 °F - 37.4 °F 51% 30.13 in 10.0 mi East 16.1 mph 23.0 mph N/A   Partly Cloudy
3:00 PM 57.2 °F - 37.4 °F 48% 30.13 in 10.0 mi East 16.1 mph 21.9 mph N/A   Clear
3:15 PM 57.2 °F - 37.4 °F 48% 30.14 in 10.0 mi East 16.1 mph 23.0 mph N/A   Partly Cloudy
3:20 PM 57.2 °F - 37.4 °F 48% 30.15 in 10.0 mi East 12.7 mph 21.9 mph N/A   Scattered Clouds
3:35 PM 57.2 °F - 37.4 °F 48% 30.15 in 10.0 mi East 16.1 mph - N/A   Partly Cloudy
3:55 PM 57.2 °F - 37.4 °F 48% 30.12 in 10.0 mi East 17.3 mph 20.7 mph N/A   Scattered Clouds
4:15 PM 55.4 °F - 37.4 °F 51% 30.12 in 10.0 mi East 15.0 mph 23.0 mph N/A   Mostly Cloudy
4:20 PM 55.4 °F - 37.4 °F 51% 30.12 in 10.0 mi ENE 16.1 mph 21.9 mph N/A   Scattered Clouds
4:35 PM 55.4 °F - 37.4 °F 51% 30.11 in 10.0 mi ENE 16.1 mph 21.9 mph N/A   Scattered Clouds
4:40 PM 55.4 °F - 37.4 °F 51% 30.11 in 10.0 mi ENE 16.1 mph 21.9 mph N/A   Partly Cloudy
4:55 PM 57.2 °F - 37.4 °F 48% 30.11 in 10.0 mi East 15.0 mph 25.3 mph N/A   Partly Cloudy
5:15 PM 57.2 °F - 37.4 °F 48% 30.10 in 10.0 mi East 17.3 mph 24.2 mph N/A   Partly Cloudy
5:20 PM 57.2 °F - 37.4 °F 48% 30.10 in 10.0 mi East 19.6 mph 24.2 mph N/A   Partly Cloudy
5:35 PM 57.2 °F - 39.2 °F 51% 30.11 in 10.0 mi East 19.6 mph 24.2 mph N/A   Clear
5:40 PM 57.2 °F - 39.2 °F 51% 30.11 in 10.0 mi East 17.3 mph 23.0 mph N/A   Clear
5:55 PM 57.2 °F - 39.2 °F 51% 30.10 in 10.0 mi East 20.7 mph 28.8 mph N/A   Clear
6:15 PM 55.4 °F - 39.2 °F 54% 30.09 in 10.0 mi East 15.0 mph 26.5 mph N/A   Scattered Clouds
6:20 PM 55.4 °F - 39.2 °F 54% 30.09 in 10.0 mi East 18.4 mph 26.5 mph N/A   Mostly Cloudy
6:35 PM 55.4 °F - 39.2 °F 54% 30.09 in 10.0 mi East 17.3 mph 26.5 mph N/A Rain Light Rain
6:40 PM 55.4 °F - 39.2 °F 54% 30.09 in 10.0 mi East 16.1 mph 20.7 mph N/A   Mostly Cloudy
6:55 PM 55.4 °F - 39.2 °F 54% 30.09 in 10.0 mi East 18.4 mph 27.6 mph N/A   Partly Cloudy
7:15 PM 53.6 °F - 39.2 °F 58% 30.08 in 10.0 mi East 13.8 mph 24.2 mph N/A   Scattered Clouds
7:35 PM 53.6 °F - 39.2 °F 58% 30.08 in 10.0 mi North - - N/A   Overcast
7:40 PM 53.6 °F - 39.2 °F 58% 30.08 in 10.0 mi North - - N/A   Overcast
7:55 PM 53.6 °F - 39.2 °F 58% 30.08 in 10.0 mi East 16.1 mph 21.9 mph N/A   Overcast
8:00 PM 53.6 °F - 39.2 °F 58% 30.07 in 10.0 mi East 17.3 mph 21.9 mph N/A   Overcast
8:15 PM 53.6 °F - 39.2 °F 58% 30.06 in 10.0 mi East 19.6 mph 26.5 mph N/A   Overcast
8:35 PM 53.6 °F - 39.2 °F 58% 30.06 in 10.0 mi East 19.6 mph 25.3 mph N/A   Overcast
8:40 PM 53.6 °F - 39.2 °F 58% 30.06 in 10.0 mi East 18.4 mph 25.3 mph N/A   Overcast
8:55 PM 53.6 °F - 41.0 °F 62% 30.07 in 10.0 mi East 17.3 mph 25.3 mph N/A   Overcast
9:00 PM 53.6 °F - 41.0 °F 62% 30.07 in 10.0 mi East 18.4 mph 25.3 mph N/A   Overcast
9:15 PM 53.6 °F - 41.0 °F 62% 30.06 in 10.0 mi East 17.3 mph 26.5 mph N/A   Overcast
9:35 PM 53.6 °F - 41.0 °F 62% 30.08 in 10.0 mi East 16.1 mph 23.0 mph N/A   Overcast
9:55 PM 53.6 °F - 41.0 °F 62% 30.08 in 10.0 mi East 17.3 mph 26.5 mph N/A   Overcast
10:00 PM 53.6 °F - 41.0 °F 62% 30.08 in 10.0 mi East 17.3 mph 26.5 mph N/A   Overcast
10:35 PM 53.6 °F - 44.6 °F 72% 30.09 in 10.0 mi East 13.8 mph 17.3 mph N/A   Overcast
10:40 PM 53.6 °F - 42.8 °F 67% 30.10 in 10.0 mi East 13.8 mph 20.7 mph N/A   Overcast
10:55 PM 51.8 °F - 44.6 °F 76% 30.09 in 10.0 mi East 15.0 mph 20.7 mph N/A Rain Light Rain
11:15 PM 50.0 °F - 50.0 °F 100% 30.08 in 9.0 mi East 18.4 mph 25.3 mph 0.03 in Rain Rain
11:20 PM 50.0 °F - 50.0 °F 100% 30.09 in 9.0 mi East 18.4 mph 25.3 mph 0.04 in Rain Light Rain
11:35 PM 50.0 °F - 50.0 °F 100% 30.08 in 10.0 mi East 13.8 mph 26.5 mph 0.04 in   Overcast
11:55 PM 48.2 °F - 48.2 °F 100% 30.07 in 10.0 mi East 15.0 mph - 0.04 in   Overcast